This is the latest recevied weather packets stored in our database for station/object N3LF. If no packets are shown the sender has not sent any weather packets the latest 10 day(s).
| Time | Temp. | Humidity | Pressure | Rain* | Wind** | Luminosity | Snow |
|---|---|---|---|---|---|---|---|
| 1787963552 | 25° C | 80% | 1019.6 hPa | 0 mm | - | 1 W/m² | - |
| 1787963247 | 25.56° C | 79% | 1019.5 hPa | 0 mm | - | 2 W/m² | - |
| 1787962946 | 26.11° C | 79% | 1019.7 hPa | 0 mm | - | 3 W/m² | - |
| 1787962655 | 26.11° C | 78% | 1019.6 hPa | 0 mm | - | 5 W/m² | - |
| 1787962340 | 26.11° C | 77% | 1019.5 hPa | 0 mm | - | 8 W/m² | - |
| 1787962034 | 26.67° C | 76% | 1019.4 hPa | 0 mm | - | 12 W/m² | - |
| 1787961729 | 26.67° C | 75% | 1019.4 hPa | 0 mm | - | 15 W/m² | - |
| 1787961428 | 27.22° C | 74% | 1019.6 hPa | 0 mm | - | 18 W/m² | - |
| 1787961128 | 27.78° C | 70% | 1019.3 hPa | 0 mm | - | 22 W/m² | - |
| 1787960827 | 28.33° C | 67% | 1019.4 hPa | 0 mm | - | 26 W/m² | - |
| 1787960522 | 28.89° C | 65% | 1019.5 hPa | 0 mm | - | 28 W/m² | - |
| 1787960221 | 29.44° C | 63% | 1019.3 hPa | 0 mm | - | 32 W/m² | - |
| 1787959915 | 30.56° C | 58% | 1019.5 hPa | 0 mm | - | 44 W/m² | - |
| 1787959610 | 30.56° C | 56% | 1019.2 hPa | 0 mm | - | 51 W/m² | - |
| 1787959305 | 31.11° C | 56% | 1019.3 hPa | 0 mm | - | 58 W/m² | - |
| 1787959004 | 31.11° C | 54% | 1019.3 hPa | 0 mm | - | 66 W/m² | - |
| 1787958700 | 30.56° C | 54% | 1019.2 hPa | 0 mm | - | 75 W/m² | - |
| 1787958395 | 31.67° C | 53% | 1019.3 hPa | 0 mm | - | 84 W/m² | - |
| 1787958092 | 31.11° C | 53% | 1019.2 hPa | 0 mm | - | 94 W/m² | - |
| 1787957790 | 31.11° C | 51% | 1019.2 hPa | 0 mm | - | 103 W/m² | - |
| 1787957485 | 31.11° C | 52% | 1019.4 hPa | 0 mm | - | 114 W/m² | - |
| 1787957185 | 30.56° C | 52% | 1019.2 hPa | 0 mm | - | 125 W/m² | - |
| 1787956880 | 31.11° C | 52% | 1019.3 hPa | 0 mm | - | 138 W/m² | - |
| 1787956586 | 31.11° C | 51% | 1019.4 hPa | 0 mm | - | 148 W/m² | - |
| 1787956274 | 31.67° C | 51% | 1019.5 hPa | 0 mm | - | 160 W/m² | - |
* Rain latest hour (hover to see other rain measurements)
** Current wind speed in m/s (hover to see current wind gust speed)